Location: *
(37.5724°S, 58.0067°E)
Time: 11:59:33
(UTC+00:00)

USA 229 DEB - Pass Details

Date: 29 November 2021
Orbit: 943 x 1269 km, 63.4° (Epoch: 14 January)

Event Time Altitude Azimuth Distance (km) Brightness Sun altitude
Exits shadow 18:51:16 - 305° (NW) 3,677 6.3 -28.9°
Reaches altitude 10° 18:52:39 10° 301° (WNW) 3,230 6.1 -28.9°
Maximum altitude 19:00:05 45° 230° (SW) 1,609 4.8 -29.3°
Drops below altitude 10° 19:07:09 10° 158° (SSE) 3,071 6.7 -29.7°
Sets 19:09:57 0° 151° (SSE) 3,987 7.4 -29.8°
